,,,PA_Meas_PMT16A,,PR_Meas_QMR101_102,,RH_Meas_QMH101,,SR_Meas_QMS101,,TA_Meas_QMH101,,GenWind,,GenWind,
date,time,status,PA,status,PR,status,RH,status,SR,status,TA,status,DirAvg,status,SpdAvg,
2008-06-07, 00:00:04,VALID,1008.86,VALID,0,VALID,94.0027,VALID,0,VALID,23.9102,VALID,36,VALID,0.314063,
2008-06-07, 00:01:04,VALID,1008.86,VALID,0,VALID,94.0713,VALID,0,VALID,23.8694,VALID,36,VALID,0.332422,
2008-06-07, 00:02:04,VALID,1008.86,VALID,0,VALID,94.0484,VALID,0,VALID,23.8694,VALID,36,VALID,0.398047,
2008-06-07, 00:03:04,VALID,1008.85,VALID,0,VALID,94.1094,VALID,0,VALID,23.8694,VALID,36,VALID,0.306641,
2008-06-07, 00:04:04,VALID,1008.84,VALID,0,VALID,94.1171,VALID,0,VALID,23.8499,VALID,51,VALID,0.3625,
2008-06-07, 00:05:04,VALID,1008.84,VALID,0,VALID,94.1476,VALID,0,VALID,23.8499,VALID,72,VALID,0.3625,
2008-06-07, 00:06:04,VALID,1008.82,VALID,0,VALID,94.2009,VALID,0,VALID,23.8499,VALID,72,VALID,0.535156,
2008-06-07, 00:07:04,VALID,1008.81,VALID,0,VALID,94.2848,VALID,0,VALID,23.8499,VALID,72,VALID,0.301562,
2008-06-07, 00:08:04,VALID,1008.8,VALID,0,VALID,94.3001,VALID,0,VALID,23.8694,VALID,72,VALID,0.432031,
2008-06-07, 00:09:04,VALID,1008.82,VALID,0,VALID,94.2696,VALID,0,VALID,23.8499,VALID,72,VALID,0.225781,
2008-06-07, 00:10:04,VALID,1008.8,VALID,0,VALID,94.2848,VALID,0,VALID,23.8499,VALID,72,VALID,0.128516,
2008-06-07, 00:11:04,VALID,1008.83,VALID,0,VALID,94.3153,VALID,0,VALID,23.8304,VALID,72,VALID,0.00859375,
2008-06-07, 00:12:04,VALID,1008.81,VALID,0,VALID,94.3001,VALID,0,VALID,23.8712,VALID,72,VALID,0.120312,
2008-06-07, 00:13:04,VALID,1008.81,VALID,0,VALID,94.3458,VALID,0,VALID,23.8499,VALID,72,VALID,0,
2008-06-07, 00:14:04,VALID,1008.84,VALID,0,VALID,94.3611,VALID,0,VALID,23.8499,VALID,72,VALID,0,
2008-06-07, 00:15:04,VALID,1008.8,VALID,0,VALID,94.3458,VALID,0,VALID,23.8304,VALID,72,VALID,0.00078125,
2008-06-07, 00:16:04,VALID,1008.8,VALID,0,VALID,94.3992,VALID,0,VALID,23.8304,VALID,72,VALID,0,
2008-06-07, 00:17:04,VALID,1008.79,VALID,0,VALID,94.3992,VALID,0,VALID,23.8109,VALID,72,VALID,0,
2008-06-07, 00:18:04,VALID,1008.78,VALID,0,VALID,94.4221,VALID,0,VALID,23.8304,VALID,71,VALID,0,
2008-06-07, 00:19:04,VALID,1008.75,VALID,0,VALID,94.4297,VALID,0,VALID,23.8109,VALID,71,VALID,0.256641,
2008-06-07, 00:20:04,VALID,1008.72,VALID,0,VALID,94.4678,VALID,0,VALID,23.8109,VALID,71,VALID,0.231641,
2008-06-07, 00:21:04,VALID,1008.68,VALID,0,VALID,94.4983,VALID,0,VALID,23.8109,VALID,71,VALID,0.219531,
2008-06-07, 00:22:04,VALID,1008.64,VALID,0,VALID,94.4983,VALID,0,VALID,23.8109,VALID,71,VALID,0,
2008-06-07, 00:23:04,VALID,1008.61,VALID,0,VALID,94.5212,VALID,0,VALID,23.8109,VALID,71,VALID,0.120703,
2008-06-07, 00:24:04,VALID,1008.61,VALID,0,VALID,94.5593,VALID,0,VALID,23.8109,VALID,71,VALID,0.202734,
2008-06-07, 00:25:04,VALID,1008.57,VALID,0,VALID,94.567,VALID,0,VALID,23.8109,VALID,71,VALID,0.171484,
2008-06-07, 00:26:04,VALID,1008.55,VALID,0,VALID,94.5593,VALID,0,VALID,23.7914,VALID,71,VALID,0.0242187,
2008-06-07, 00:27:04,VALID,1008.52,VALID,0,VALID,94.5822,VALID,0,VALID,23.7914,VALID,71,VALID,0.176172,
2008-06-07, 00:28:04,VALID,1008.5,VALID,0,VALID,94.6051,VALID,0,VALID,23.7932,VALID,71,VALID,0.178125,
2008-06-07, 00:29:04,VALID,1008.49,VALID,0,VALID,94.5898,VALID,0,VALID,23.772,VALID,70,VALID,0.242188,
2008-06-07, 00:30:04,VALID,1008.47,VALID,0,VALID,94.5975,VALID,0,VALID,23.772,VALID,71,VALID,0.171484,
2008-06-07, 00:31:04,VALID,1008.48,VALID,0,VALID,94.6051,VALID,0,VALID,23.7312,VALID,71,VALID,0.0324219,
2008-06-07, 00:32:04,VALID,1008.48,VALID,0,VALID,94.628,VALID,0,VALID,23.733,VALID,71,VALID,0.0710938,
2008-06-07, 00:33:04,VALID,1008.45,VALID,0,VALID,94.7042,VALID,0,VALID,23.733,VALID,71,VALID,0.0699219,
2008-06-07, 00:34:04,VALID,1008.47,VALID,0,VALID,94.7195,VALID,0,VALID,23.7525,VALID,71,VALID,0,
2008-06-07, 00:35:04,VALID,1008.43,VALID,0,VALID,94.7576,VALID,0,VALID,23.733,VALID,71,VALID,0,
2008-06-07, 00:36:04,VALID,1008.44,VALID,0,VALID,94.7805,VALID,0,VALID,23.733,VALID,71,VALID,0.0519531,
2008-06-07, 00:37:04,VALID,1008.42,VALID,0,VALID,94.7881,VALID,0,VALID,23.733,VALID,71,VALID,0.289844,
2008-06-07, 00:38:04,VALID,1008.42,VALID,0,VALID,94.8186,VALID,0,VALID,23.7135,VALID,71,VALID,0.430469,
2008-06-07, 00:39:04,VALID,1008.41,VALID,0,VALID,94.8186,VALID,0,VALID,23.7135,VALID,58,VALID,0.466797,
2008-06-07, 00:40:04,VALID,1008.36,VALID,0,VALID,94.8796,VALID,0,VALID,23.7135,VALID,58,VALID,0.302734,
2008-06-07, 00:41:04,VALID,1008.35,VALID,0,VALID,94.9101,VALID,0,VALID,23.694,VALID,59,VALID,0.169922,
2008-06-07, 00:42:04,VALID,1008.34,VALID,0,VALID,94.933,VALID,0,VALID,23.694,VALID,58,VALID,0.200391,
2008-06-07, 00:43:04,VALID,1008.31,VALID,0,VALID,94.9483,VALID,0,VALID,23.694,VALID,58,VALID,0.225391,
2008-06-07, 00:44:04,VALID,1008.29,VALID,0,VALID,94.9864,VALID,0.105969,VALID,23.694,VALID,59,VALID,0.234766,
2008-06-07, 00:45:04,VALID,1008.29,VALID,0,VALID,95.0016,VALID,0,VALID,23.694,VALID,53,VALID,0.49375,
2008-06-07, 00:46:04,VALID,1008.27,VALID,0,VALID,95.0169,VALID,0,VALID,23.6745,VALID,50,VALID,0.308984,
2008-06-07, 00:47:04,VALID,1008.29,VALID,0,VALID,95.0245,VALID,0,VALID,23.6745,VALID,50,VALID,0.253125,
2008-06-07, 00:48:04,VALID,1008.28,VALID,0,VALID,95.055,VALID,0,VALID,23.655,VALID,50,VALID,0.301562,
2008-06-07, 00:49:04,VALID,1008.26,VALID,0,VALID,95.0703,VALID,0,VALID,23.655,VALID,50,VALID,0.0964844,
2008-06-07, 00:50:04,VALID,1008.24,VALID,0,VALID,95.1084,VALID,0,VALID,23.655,VALID,50,VALID,0,
2008-06-07, 00:51:04,VALID,1008.24,VALID,0,VALID,95.1084,VALID,0,VALID,23.6745,VALID,50,VALID,0,
2008-06-07, 00:52:04,VALID,1008.24,VALID,0,VALID,95.1236,VALID,0,VALID,23.6745,VALID,50,VALID,0.105859,
2008-06-07, 00:53:04,VALID,1008.23,VALID,0,VALID,95.1465,VALID,0,VALID,23.6745,VALID,50,VALID,0,
2008-06-07, 00:54:04,VALID,1008.24,VALID,0,VALID,95.1542,VALID,0,VALID,23.655,VALID,50,VALID,0,
2008-06-07, 00:55:04,VALID,1008.21,VALID,0,VALID,95.1694,VALID,0,VALID,23.655,VALID,50,VALID,0.078125,
2008-06-07, 00:56:04,VALID,1008.22,VALID,0,VALID,95.1694,VALID,0,VALID,23.655,VALID,50,VALID,0.158984,
2008-06-07, 00:57:04,VALID,1008.26,VALID,0,VALID,95.2075,VALID,0,VALID,23.6356,VALID,50,VALID,0.107422,
2008-06-07, 00:58:04,VALID,1008.24,VALID,0,VALID,95.2152,VALID,0,VALID,23.655,VALID,50,VALID,0,
2008-06-07, 00:59:04,VALID,1008.28,VALID,0,VALID,95.2533,VALID,0,VALID,23.6532,VALID,40,VALID,0.239844,
2008-06-07, 01:00:04,VALID,1008.3,VALID,0,VALID,95.2457,VALID,0,VALID,23.655,VALID,325,VALID,0.0308594,
2008-06-07, 01:01:04,VALID,1008.3,VALID,0,VALID,95.2838,VALID,0,VALID,23.655,VALID,325,VALID,0.0679687,
2008-06-07, 01:02:04,VALID,1008.33,VALID,0,VALID,95.2838,VALID,0,VALID,23.6745,VALID,325,VALID,0.1625,
2008-06-07, 01:03:04,VALID,1008.34,VALID,0,VALID,95.2762,VALID,0,VALID,23.6745,VALID,326,VALID,0.120703,
2008-06-07, 01:04:04,VALID,1008.36,VALID,0,VALID,95.3067,VALID,0,VALID,23.694,VALID,326,VALID,0.294922,
2008-06-07, 01:05:04,VALID,1008.37,VALID,0,VALID,95.2914,VALID,0,VALID,23.694,VALID,7,VALID,0.473828,
2008-06-07, 01:06:04,VALID,1008.39,VALID,0,VALID,95.2762,VALID,0,VALID,23.694,VALID,7,VALID,0.315625,
2008-06-07, 01:07:04,VALID,1008.42,VALID,0,VALID,95.2685,VALID,0,VALID,23.694,VALID,7,VALID,0.335938,
2008-06-07, 01:08:04,VALID,1008.42,VALID,0,VALID,95.2152,VALID,0,VALID,23.694,VALID,29,VALID,0.517578,
2008-06-07, 01:09:04,VALID,1008.46,VALID,0,VALID,95.2152,VALID,0,VALID,23.694,VALID,49,VALID,0.379297,
2008-06-07, 01:10:04,VALID,1008.48,VALID,0,VALID,95.1999,VALID,0,VALID,23.7153,VALID,48,VALID,0.046875,
2008-06-07, 01:11:04,VALID,1008.49,VALID,0,VALID,95.177,VALID,0,VALID,23.7135,VALID,52,VALID,0.444531,
2008-06-07, 01:12:04,VALID,1008.5,VALID,0,VALID,95.1618,VALID,0,VALID,23.7135,VALID,25,VALID,0.0554687,
2008-06-07, 01:13:04,VALID,1008.48,VALID,0,VALID,95.1542,VALID,0,VALID,23.733,VALID,25,VALID,0.252734,
2008-06-07, 01:14:04,VALID,1008.49,VALID,0,VALID,95.1389,VALID,0,VALID,23.7525,VALID,25,VALID,0.174609,
2008-06-07, 01:15:04,VALID,1008.5,VALID,0,VALID,95.1236,VALID,0,VALID,23.733,VALID,25,VALID,0.166016,
2008-06-07, 01:16:04,VALID,1008.49,VALID,0,VALID,95.1008,VALID,0,VALID,23.7117,VALID,25,VALID,0,
2008-06-07, 01:17:04,VALID,1008.44,VALID,0,VALID,95.0626,VALID,0,VALID,23.733,VALID,25,VALID,0.00234375,
2008-06-07, 01:18:04,VALID,1008.44,VALID,0,VALID,95.0626,VALID,0,VALID,23.733,VALID,25,VALID,0.263281,
2008-06-07, 01:19:04,VALID,1008.45,VALID,0,VALID,94.994,VALID,0,VALID,23.7525,VALID,24,VALID,0.287109,
2008-06-07, 01:20:04,VALID,1008.42,VALID,0,VALID,94.9483,VALID,0,VALID,23.733,VALID,338,VALID,0.364453,
2008-06-07, 01:21:04,VALID,1008.43,VALID,0,VALID,94.9178,VALID,0,VALID,23.7525,VALID,341,VALID,0.404687,
2008-06-07, 01:22:04,VALID,1008.41,VALID,0,VALID,94.8796,VALID,0,VALID,23.7525,VALID,339,VALID,0.188281,
2008-06-07, 01:23:04,VALID,1008.4,VALID,0,VALID,94.8491,VALID,0,VALID,23.772,VALID,327,VALID,0.391016,
2008-06-07, 01:24:04,VALID,1008.39,VALID,0,VALID,94.8339,VALID,0,VALID,23.7507,VALID,325,VALID,0.250391,
2008-06-07, 01:25:04,VALID,1008.39,VALID,0,VALID,94.811,VALID,0,VALID,23.772,VALID,322,VALID,0.221875,
2008-06-07, 01:26:04,VALID,1008.41,VALID,0,VALID,94.7195,VALID,0,VALID,23.7914,VALID,295,VALID,0.517969,
2008-06-07, 01:27:04,VALID,1008.38,VALID,0,VALID,94.6585,VALID,0,VALID,23.772,VALID,297,VALID,0.142969,
2008-06-07, 01:28:04,VALID,1008.4,VALID,0,VALID,94.5898,VALID,0,VALID,23.7914,VALID,302,VALID,0.352344,
2008-06-07, 01:29:04,VALID,1008.39,VALID,0,VALID,94.5898,VALID,0,VALID,23.7914,VALID,306,VALID,0.344531,
2008-06-07, 01:30:04,VALID,1008.42,VALID,0,VALID,94.5441,VALID,0,VALID,23.8109,VALID,306,VALID,0.375391,
2008-06-07, 01:31:04,VALID,1008.43,VALID,0,VALID,94.506,VALID,0,VALID,23.7914,VALID,306,VALID,0.264453,
2008-06-07, 01:32:04,VALID,1008.41,VALID,0,VALID,94.506,VALID,0.105969,VALID,23.7914,VALID,306,VALID,0.259375,
2008-06-07, 01:33:04,VALID,1008.4,VALID,0,VALID,94.4755,VALID,0,VALID,23.772,VALID,306,VALID,0.178516,
2008-06-07, 01:34:04,VALID,1008.39,VALID,0,VALID,94.4907,VALID,0,VALID,23.772,VALID,306,VALID,0.305078,
2008-06-07, 01:35:04,VALID,1008.4,VALID,0,VALID,94.5136,VALID,0,VALID,23.7507,VALID,307,VALID,0.291797,
2008-06-07, 01:36:04,VALID,1008.37,VALID,0,VALID,94.5288,VALID,0,VALID,23.7701,VALID,307,VALID,0.239453,
2008-06-07, 01:37:04,VALID,1008.39,VALID,0,VALID,94.5517,VALID,0,VALID,23.772,VALID,307,VALID,0.156641,
2008-06-07, 01:38:04,VALID,1008.37,VALID,0,VALID,94.5822,VALID,0,VALID,23.772,VALID,307,VALID,0.021875,
2008-06-07, 01:39:04,VALID,1008.39,VALID,0,VALID,94.6127,VALID,0,VALID,23.772,VALID,307,VALID,0,
2008-06-07, 01:40:04,VALID,1008.36,VALID,0,VALID,94.6203,VALID,0.105969,VALID,23.772,VALID,307,VALID,0.283594,
2008-06-07, 01:41:04,VALID,1008.38,VALID,0,VALID,94.6661,VALID,0,VALID,23.7525,VALID,307,VALID,0.250391,
2008-06-07, 01:42:04,VALID,1008.36,VALID,0,VALID,94.6966,VALID,0,VALID,23.7525,VALID,307,VALID,0.259375,
2008-06-07, 01:43:04,VALID,1008.38,VALID,0,VALID,94.7119,VALID,0,VALID,23.772,VALID,307,VALID,0.0527344,
2008-06-07, 01:44:04,VALID,1008.35,VALID,0,VALID,94.6966,VALID,0,VALID,23.772,VALID,307,VALID,0.1375,
2008-06-07, 01:45:04,VALID,1008.4,VALID,0,VALID,94.6814,VALID,0.105969,VALID,23.772,VALID,307,VALID,0.143359,
2008-06-07, 01:46:04,VALID,1008.39,VALID,0,VALID,94.6661,VALID,0,VALID,23.7525,VALID,307,VALID,0.145703,
2008-06-07, 01:47:04,VALID,1008.37,VALID,0,VALID,94.6737,VALID,0,VALID,23.7525,VALID,307,VALID,0.133203,
2008-06-07, 01:48:04,VALID,1008.37,VALID,0,VALID,94.6661,VALID,0,VALID,23.733,VALID,307,VALID,0.0425781,
2008-06-07, 01:49:04,VALID,1008.35,VALID,0,VALID,94.6661,VALID,0,VALID,23.733,VALID,307,VALID,0.0839844,
2008-06-07, 01:50:04,VALID,1008.35,VALID,0,VALID,94.689,VALID,0,VALID,23.7117,VALID,307,VALID,0.0824219,
2008-06-07, 01:51:04,VALID,1008.34,VALID,0,VALID,94.6661,VALID,0,VALID,23.7348,VALID,307,VALID,0.1875,
2008-06-07, 01:52:04,VALID,1008.34,VALID,0,VALID,94.6814,VALID,0,VALID,23.7135,VALID,307,VALID,0.190625,
2008-06-07, 01:53:04,VALID,1008.33,VALID,0,VALID,94.6814,VALID,0.105969,VALID,23.694,VALID,307,VALID,0.203906,
2008-06-07, 01:54:04,VALID,1008.33,VALID,0,VALID,94.6814,VALID,0,VALID,23.6745,VALID,307,VALID,0.0578125,
2008-06-07, 01:55:04,VALID,1008.32,VALID,0,VALID,94.689,VALID,0,VALID,23.694,VALID,307,VALID,0.00273437,
2008-06-07, 01:56:04,VALID,1008.31,VALID,0,VALID,94.7119,VALID,0,VALID,23.6745,VALID,307,VALID,0.173828,
2008-06-07, 01:57:04,VALID,1008.31,VALID,0,VALID,94.7271,VALID,0,VALID,23.6745,VALID,307,VALID,0,
2008-06-07, 01:58:04,VALID,1008.3,VALID,0,VALID,94.7424,VALID,0,VALID,23.655,VALID,307,VALID,0,
2008-06-07, 01:59:04,VALID,1008.28,VALID,0,VALID,94.7805,VALID,0,VALID,23.655,VALID,307,VALID,0,
2008-06-07, 02:00:04,VALID,1008.27,VALID,0,VALID,94.7805,VALID,0.105969,VALID,23.655,VALID,307,VALID,0,
2008-06-07, 02:01:04,VALID,1008.28,VALID,0,VALID,94.8034,VALID,0,VALID,23.6356,VALID,307,VALID,0,
2008-06-07, 02:02:04,VALID,1008.23,VALID,0,VALID,94.8415,VALID,0,VALID,23.6161,VALID,307,VALID,0,
2008-06-07, 02:03:04,VALID,1008.25,VALID,0,VALID,94.8491,VALID,0.105969,VALID,23.6356,VALID,307,VALID,0,
2008-06-07, 02:04:04,VALID,1008.24,VALID,0,VALID,94.872,VALID,0,VALID,23.6143,VALID,307,VALID,0.155469,
2008-06-07, 02:05:04,VALID,1008.25,VALID,0,VALID,94.9254,VALID,0.105969,VALID,23.6161,VALID,307,VALID,0.273438,
2008-06-07, 02:06:04,VALID,1008.28,VALID,0,VALID,94.933,VALID,0,VALID,23.6161,VALID,307,VALID,0.108203,
2008-06-07, 02:07:04,VALID,1008.3,VALID,0,VALID,94.933,VALID,0,VALID,23.5966,VALID,307,VALID,0.234766,
2008-06-07, 02:08:04,VALID,1008.31,VALID,0,VALID,94.9406,VALID,0,VALID,23.6161,VALID,307,VALID,0.311328,
2008-06-07, 02:09:04,VALID,1008.34,VALID,0,VALID,94.9406,VALID,0,VALID,23.5966,VALID,311,VALID,0.384375,
2008-06-07, 02:10:04,VALID,1008.35,VALID,0,VALID,94.933,VALID,0,VALID,23.5753,VALID,358,VALID,0.338672,
2008-06-07, 02:11:04,VALID,1008.38,VALID,0,VALID,94.9559,VALID,0,VALID,23.5771,VALID,358,VALID,0.317969,
2008-06-07, 02:12:04,VALID,1008.33,VALID,0,VALID,94.9483,VALID,0,VALID,23.5771,VALID,358,VALID,0.237109,
2008-06-07, 02:13:04,VALID,1008.34,VALID,0,VALID,94.9788,VALID,0,VALID,23.5771,VALID,358,VALID,0.187891,
2008-06-07, 02:14:04,VALID,1008.33,VALID,0,VALID,94.9788,VALID,0,VALID,23.5576,VALID,358,VALID,0,
2008-06-07, 02:15:04,VALID,1008.34,VALID,0,VALID,94.994,VALID,0,VALID,23.5576,VALID,358,VALID,0,
2008-06-07, 02:16:04,VALID,1008.32,VALID,0,VALID,95.0093,VALID,0,VALID,23.5381,VALID,358,VALID,0,
2008-06-07, 02:17:04,VALID,1008.34,VALID,0,VALID,95.0626,VALID,0,VALID,23.5576,VALID,358,VALID,0,
2008-06-07, 02:18:04,VALID,1008.33,VALID,0,VALID,95.0779,VALID,0,VALID,23.5576,VALID,358,VALID,0,
2008-06-07, 02:19:04,VALID,1008.34,VALID,0,VALID,95.0855,VALID,0,VALID,23.5576,VALID,358,VALID,0,
2008-06-07, 02:20:04,VALID,1008.37,VALID,0,VALID,95.1236,VALID,0,VALID,23.5576,VALID,358,VALID,0,
2008-06-07, 02:21:04,VALID,1008.34,VALID,0,VALID,95.1389,VALID,0,VALID,23.5576,VALID,358,VALID,0,
2008-06-07, 02:22:04,VALID,1008.36,VALID,0,VALID,95.1542,VALID,0,VALID,23.5576,VALID,358,VALID,0,
2008-06-07, 02:23:04,VALID,1008.36,VALID,0,VALID,95.1694,VALID,0,VALID,23.5576,VALID,358,VALID,0,
2008-06-07, 02:24:04,VALID,1008.38,VALID,0,VALID,95.1999,VALID,0.105969,VALID,23.5771,VALID,358,VALID,0.00429688,
2008-06-07, 02:25:04,VALID,1008.36,VALID,0,VALID,95.2304,VALID,0,VALID,23.5753,VALID,358,VALID,0.0824219,
2008-06-07, 02:26:04,VALID,1008.36,VALID,0,VALID,95.2304,VALID,0,VALID,23.5966,VALID,358,VALID,0.162109,
2008-06-07, 02:27:04,VALID,1008.35,VALID,0,VALID,95.2457,VALID,0.105969,VALID,23.5966,VALID,358,VALID,0.108203,
2008-06-07, 02:28:04,VALID,1008.34,VALID,0,VALID,95.2457,VALID,0,VALID,23.5948,VALID,358,VALID,0.0703125,
2008-06-07, 02:29:04,VALID,1008.32,VALID,0,VALID,95.238,VALID,0,VALID,23.5948,VALID,358,VALID,0.0300781,
2008-06-07, 02:30:04,VALID,1008.31,VALID,0,VALID,95.2228,VALID,0.105969,VALID,23.6161,VALID,358,VALID,0.0894531,
2008-06-07, 02:31:04,VALID,1008.31,VALID,0,VALID,95.2304,VALID,0,VALID,23.6356,VALID,358,VALID,0.106641,
2008-06-07, 02:32:04,VALID,1008.28,VALID,0,VALID,95.2228,VALID,0,VALID,23.6356,VALID,358,VALID,0,
2008-06-07, 02:33:04,VALID,1008.27,VALID,0,VALID,95.1923,VALID,0,VALID,23.6161,VALID,358,VALID,0,
2008-06-07, 02:34:04,VALID,1008.27,VALID,0,VALID,95.1694,VALID,0.105969,VALID,23.6161,VALID,358,VALID,0,
2008-06-07, 02:35:04,VALID,1008.26,VALID,0,VALID,95.1465,VALID,0,VALID,23.5948,VALID,358,VALID,0,
2008-06-07, 02:36:04,VALID,1008.24,VALID,0,VALID,95.1389,VALID,0,VALID,23.6161,VALID,358,VALID,0,
2008-06-07, 02:37:04,VALID,1008.24,VALID,0,VALID,95.1313,VALID,0,VALID,23.5966,VALID,358,VALID,0.0164062,
2008-06-07, 02:38:04,VALID,1008.25,VALID,0,VALID,95.1389,VALID,0,VALID,23.5753,VALID,358,VALID,0,
2008-06-07, 02:39:04,VALID,1008.25,VALID,0,VALID,95.1389,VALID,0.105969,VALID,23.5948,VALID,358,VALID,0,
2008-06-07, 02:40:04,VALID,1008.26,VALID,0,VALID,95.1542,VALID,0,VALID,23.6161,VALID,358,VALID,0,
2008-06-07, 02:41:04,VALID,1008.26,VALID,0,VALID,95.1542,VALID,0.105969,VALID,23.6161,VALID,358,VALID,0,
2008-06-07, 02:42:04,VALID,1008.25,VALID,0,VALID,95.1847,VALID,0,VALID,23.6143,VALID,358,VALID,0,
2008-06-07, 02:43:04,VALID,1008.25,VALID,0,VALID,95.177,VALID,0,VALID,23.6373,VALID,358,VALID,0.0464844,
2008-06-07, 02:44:04,VALID,1008.25,VALID,0,VALID,95.1999,VALID,0,VALID,23.6356,VALID,358,VALID,0.191016,
2008-06-07, 02:45:04,VALID,1008.24,VALID,0,VALID,95.1847,VALID,0,VALID,23.6356,VALID,358,VALID,0.173438,
2008-06-07, 02:46:04,VALID,1008.24,VALID,0,VALID,95.1847,VALID,0,VALID,23.6356,VALID,357,VALID,0.208594,
2008-06-07, 02:47:04,VALID,1008.2,VALID,0,VALID,95.1618,VALID,0,VALID,23.6143,VALID,310,VALID,0.409766,
2008-06-07, 02:48:04,VALID,1008.17,VALID,0,VALID,95.116,VALID,0.105969,VALID,23.6763,VALID,310,VALID,0.300781,
2008-06-07, 02:49:04,VALID,1008.15,VALID,0,VALID,95.1313,VALID,0,VALID,23.6958,VALID,310,VALID,0.154297,
2008-06-07, 02:50:04,VALID,1008.1,VALID,0,VALID,95.0855,VALID,0,VALID,23.6745,VALID,310,VALID,0.283203,
2008-06-07, 02:51:04,VALID,1008.08,VALID,0,VALID,95.0779,VALID,0.105969,VALID,23.7135,VALID,310,VALID,0.186328,
2008-06-07, 02:52:04,VALID,1008.05,VALID,0,VALID,95.0398,VALID,0.105969,VALID,23.694,VALID,310,VALID,0.189844,
2008-06-07, 02:53:04,VALID,1008.04,VALID,0,VALID,94.9711,VALID,0,VALID,23.733,VALID,310,VALID,0.154687,
2008-06-07, 02:54:04,VALID,1007.99,VALID,0,VALID,94.933,VALID,0.105969,VALID,23.7135,VALID,310,VALID,0.228906,
2008-06-07, 02:55:04,VALID,1007.96,VALID,0,VALID,94.8873,VALID,0,VALID,23.7543,VALID,310,VALID,0.164453,
2008-06-07, 02:56:04,VALID,1007.94,VALID,0,VALID,94.8644,VALID,0,VALID,23.7135,VALID,310,VALID,0.253125,
2008-06-07, 02:57:04,VALID,1007.92,VALID,0,VALID,94.8491,VALID,0,VALID,23.7135,VALID,310,VALID,0.205469,
2008-06-07, 02:58:04,VALID,1007.92,VALID,0,VALID,94.7881,VALID,0,VALID,23.694,VALID,310,VALID,0.157813,
2008-06-07, 02:59:04,VALID,1007.91,VALID,0,VALID,94.75,VALID,0,VALID,23.6745,VALID,310,VALID,0.194922,
2008-06-07, 03:00:04,VALID,1007.89,VALID,0,VALID,94.75,VALID,0,VALID,23.6745,VALID,310,VALID,0,
2008-06-07, 03:01:04,VALID,1007.9,VALID,0,VALID,94.7652,VALID,0,VALID,23.6745,VALID,310,VALID,0,
2008-06-07, 03:02:04,VALID,1007.87,VALID,0,VALID,94.7729,VALID,0,VALID,23.6763,VALID,310,VALID,0.213672,
2008-06-07, 03:03:04,VALID,1007.87,VALID,0,VALID,94.8644,VALID,0,VALID,23.655,VALID,310,VALID,0.189063,
2008-06-07, 03:04:04,VALID,1007.86,VALID,0,VALID,94.8949,VALID,0,VALID,23.655,VALID,310,VALID,0.0453125,
2008-06-07, 03:05:04,VALID,1007.85,VALID,0,VALID,94.9101,VALID,0,VALID,23.655,VALID,310,VALID,0,
2008-06-07, 03:06:04,VALID,1007.86,VALID,0,VALID,94.9101,VALID,0,VALID,23.6568,VALID,310,VALID,0,
2008-06-07, 03:07:04,VALID,1007.85,VALID,0,VALID,94.8873,VALID,0,VALID,23.6356,VALID,310,VALID,0,
2008-06-07, 03:08:04,VALID,1007.83,VALID,0,VALID,94.9178,VALID,0,VALID,23.6568,VALID,310,VALID,0,
2008-06-07, 03:09:04,VALID,1007.86,VALID,0,VALID,94.9254,VALID,0,VALID,23.6161,VALID,310,VALID,0.164453,
2008-06-07, 03:10:04,VALID,1007.85,VALID,0,VALID,94.9483,VALID,0,VALID,23.6161,VALID,310,VALID,0.295312,
2008-06-07, 03:11:04,VALID,1007.86,VALID,0,VALID,94.9483,VALID,0,VALID,23.5771,VALID,310,VALID,0.253516,
2008-06-07, 03:12:04,VALID,1007.86,VALID,0,VALID,94.9864,VALID,0,VALID,23.5966,VALID,310,VALID,0.169141,
2008-06-07, 03:13:04,VALID,1007.86,VALID,0,VALID,94.9406,VALID,0,VALID,23.5771,VALID,310,VALID,0.192188,
2008-06-07, 03:14:04,VALID,1007.83,VALID,0,VALID,94.9025,VALID,0,VALID,23.5381,VALID,310,VALID,0,
2008-06-07, 03:15:04,VALID,1007.84,VALID,0,VALID,94.8949,VALID,0,VALID,23.5594,VALID,310,VALID,0,
2008-06-07, 03:16:04,VALID,1007.86,VALID,0,VALID,94.9254,VALID,0,VALID,23.5186,VALID,310,VALID,0,
2008-06-07, 03:17:04,VALID,1007.85,VALID,0,VALID,94.9483,VALID,0,VALID,23.5186,VALID,310,VALID,0,
2008-06-07, 03:18:04,VALID,1007.85,VALID,0,VALID,94.9635,VALID,0,VALID,23.5204,VALID,310,VALID,0,
2008-06-07, 03:19:04,VALID,1007.82,VALID,0,VALID,94.9635,VALID,0,VALID,23.5009,VALID,310,VALID,0,
2008-06-07, 03:20:04,VALID,1007.82,VALID,0,VALID,95.0169,VALID,0,VALID,23.4797,VALID,310,VALID,0,
2008-06-07, 03:21:04,VALID,1007.83,VALID,0,VALID,95.0245,VALID,0,VALID,23.4602,VALID,310,VALID,0,
2008-06-07, 03:22:04,VALID,1007.87,VALID,0,VALID,95.0321,VALID,0,VALID,23.4602,VALID,310,VALID,0,
2008-06-07, 03:23:04,VALID,1007.82,VALID,0,VALID,95.0474,VALID,0,VALID,23.4602,VALID,310,VALID,0,
2008-06-07, 03:24:04,VALID,1007.82,VALID,0,VALID,95.0931,VALID,0,VALID,23.4425,VALID,310,VALID,0,
2008-06-07, 03:25:04,VALID,1007.79,VALID,0,VALID,95.1008,VALID,0,VALID,23.4425,VALID,310,VALID,0,
2008-06-07, 03:26:04,VALID,1007.79,VALID,0,VALID,95.116,VALID,0,VALID,23.4212,VALID,310,VALID,0,
2008-06-07, 03:27:04,VALID,1007.81,VALID,0,VALID,95.1618,VALID,0,VALID,23.4017,VALID,310,VALID,0,
2008-06-07, 03:28:04,VALID,1007.79,VALID,0,VALID,95.1999,VALID,0,VALID,23.4212,VALID,310,VALID,0,
2008-06-07, 03:29:04,VALID,1007.77,VALID,0,VALID,95.238,VALID,0,VALID,23.4212,VALID,310,VALID,0,
2008-06-07, 03:30:04,VALID,1007.8,VALID,0,VALID,95.2533,VALID,0,VALID,23.4212,VALID,310,VALID,0,
2008-06-07, 03:31:04,VALID,1007.76,VALID,0,VALID,95.299,VALID,0,VALID,23.4407,VALID,310,VALID,0,
2008-06-07, 03:32:04,VALID,1007.77,VALID,0,VALID,95.3067,VALID,0,VALID,23.4407,VALID,310,VALID,0,
2008-06-07, 03:33:04,VALID,1007.76,VALID,0,VALID,95.3448,VALID,0,VALID,23.4407,VALID,310,VALID,0,
2008-06-07, 03:34:04,VALID,1007.75,VALID,0,VALID,95.3295,VALID,0,VALID,23.462,VALID,310,VALID,0,
2008-06-07, 03:35:04,VALID,1007.75,VALID,0,VALID,95.3295,VALID,0,VALID,23.4407,VALID,310,VALID,0,
2008-06-07, 03:36:04,VALID,1007.73,VALID,0,VALID,95.3905,VALID,0,VALID,23.462,VALID,310,VALID,0.242969,
2008-06-07, 03:37:04,VALID,1007.74,VALID,0,VALID,95.3829,VALID,0,VALID,23.4212,VALID,310,VALID,0.142578,
2008-06-07, 03:38:04,VALID,1007.72,VALID,0,VALID,95.3829,VALID,0,VALID,23.4407,VALID,310,VALID,0.0429688,
2008-06-07, 03:39:04,VALID,1007.71,VALID,0,VALID,95.3677,VALID,0,VALID,23.4407,VALID,310,VALID,0,
2008-06-07, 03:40:04,VALID,1007.69,VALID,0,VALID,95.3219,VALID,0,VALID,23.4017,VALID,310,VALID,0,
2008-06-07, 03:41:04,VALID,1007.71,VALID,0,VALID,95.3295,VALID,0,VALID,23.3823,VALID,310,VALID,0,
2008-06-07, 03:42:04,VALID,1007.69,VALID,0,VALID,95.3372,VALID,0,VALID,23.3823,VALID,310,VALID,0.0960938,
2008-06-07, 03:43:04,VALID,1007.73,VALID,0,VALID,95.3295,VALID,0,VALID,23.3628,VALID,310,VALID,0.113672,
2008-06-07, 03:44:04,VALID,1007.72,VALID,0,VALID,95.3067,VALID,0,VALID,23.3433,VALID,310,VALID,0.0925781,
2008-06-07, 03:45:04,VALID,1007.71,VALID,0,VALID,95.3295,VALID,0,VALID,23.3238,VALID,310,VALID,0.0441406,
2008-06-07, 03:46:04,VALID,1007.73,VALID,0,VALID,95.3295,VALID,0,VALID,23.3238,VALID,310,VALID,0.0046875,
2008-06-07, 03:47:04,VALID,1007.71,VALID,0,VALID,95.36,VALID,0,VALID,23.3238,VALID,310,VALID,0.223047,
2008-06-07, 03:48:04,VALID,1007.71,VALID,0,VALID,95.4058,VALID,0,VALID,23.3433,VALID,310,VALID,0.169531,